Location: Christchurch
(43.5330°S, 172.6330°E)
Time: 04:25:06
(UTC+13:00)

Meteor 2-13 Rocket - Pass Details

Date: 24 January 2019
Orbit: 935 x 958 km, 82.5° (Epoch: 21 October)

Event Time Altitude Azimuth Distance (km) Brightness Sun altitude
Rises 22:28:02 0° 353° (N) 3,586 7.1 -13.2°
Reaches altitude 10° 22:30:30 10° 353° (N) 2,651 6.4 -13.5°
Maximum altitude 22:36:34 88° 264° (W) 956 4.5 -14.3°
Drops below altitude 10° 22:42:46 10° 172° (S) 2,696 7.4 -15.1°
Sets 22:45:17 0° 171° (S) 3,650 8.1 -15.4°
